Time,TemperatureF,DewpointF,PressureIn,WindDirection,WindDirectionDegrees,WindSpeedMPH,WindSpeedGustMPH,Humidity,HourlyPrecipIn,Conditions,Clouds,dailyrainin,SoftwareType,DateUTC
2013-07-09 00:01:00,67.8,61.1,0.00,WSW,250,0.0,0.0,79,0.00,,---,0.00,VWS V14.01,2013-07-09 04:01:00,
2013-07-09 00:02:00,67.8,61.1,0.00,WSW,250,0.0,0.0,79,0.00,,---,0.00,VWS V14.01,2013-07-09 04:02:00,
2013-07-09 00:07:00,67.6,61.3,0.00,WSW,250,0.0,0.0,80,0.00,,---,0.00,VWS V14.01,2013-07-09 04:07:00,
2013-07-09 00:12:00,67.6,61.3,0.00,WSW,250,0.0,0.0,80,0.00,,---,0.00,VWS V14.01,2013-07-09 04:12:00,
2013-07-09 00:17:00,67.6,61.3,0.00,WSW,250,0.0,0.0,80,0.00,,---,0.00,VWS V14.01,2013-07-09 04:17:00,
2013-07-09 00:22:00,67.5,61.1,0.00,WSW,250,0.0,0.0,80,0.00,,---,0.00,VWS V14.01,2013-07-09 04:22:00,
2013-07-09 00:27:00,67.5,61.1,0.00,WSW,250,0.0,0.0,80,0.00,,---,0.00,VWS V14.01,2013-07-09 04:27:00,
2013-07-09 00:32:00,67.3,60.9,0.00,WSW,250,0.0,0.0,80,0.00,,---,0.00,VWS V14.01,2013-07-09 04:32:00,
2013-07-09 00:37:00,67.3,60.9,0.00,WSW,250,0.0,0.0,80,0.00,,---,0.00,VWS V14.01,2013-07-09 04:37:00,
2013-07-09 00:42:00,67.3,60.9,0.00,WSW,250,0.0,0.0,80,0.00,,---,0.00,VWS V14.01,2013-07-09 04:42:00,
2013-07-09 00:47:00,67.1,60.7,0.00,WSW,250,0.0,0.0,80,0.00,,---,0.00,VWS V14.01,2013-07-09 04:47:00,
2013-07-09 00:52:00,67.1,60.7,0.00,WSW,250,0.0,0.0,80,0.00,,---,0.00,VWS V14.01,2013-07-09 04:52:00,
2013-07-09 00:57:00,67.1,60.7,0.00,WSW,250,0.0,0.0,80,0.00,,---,0.00,VWS V14.01,2013-07-09 04:57:00,
2013-07-09 01:02:00,67.1,60.7,0.00,WSW,250,0.0,0.0,80,0.00,,---,0.00,VWS V14.01,2013-07-09 05:02:00,
2013-07-09 01:07:00,67.1,60.7,0.00,WSW,250,0.0,0.0,80,0.00,,---,0.00,VWS V14.01,2013-07-09 05:07:00,
2013-07-09 01:12:00,66.9,60.6,0.00,WSW,250,0.0,0.0,80,0.00,,---,0.00,VWS V14.01,2013-07-09 05:12:00,
2013-07-09 01:17:00,66.9,60.6,0.00,WSW,250,0.0,0.0,80,0.00,,---,0.00,VWS V14.01,2013-07-09 05:17:00,
2013-07-09 01:22:00,66.7,60.4,0.00,WSW,250,0.0,0.0,80,0.00,,---,0.00,VWS V14.01,2013-07-09 05:22:00,
2013-07-09 01:27:00,66.7,60.4,0.00,WSW,250,0.0,0.0,80,0.00,,---,0.00,VWS V14.01,2013-07-09 05:27:00,
2013-07-09 01:32:00,66.7,60.4,0.00,WSW,250,0.0,0.0,80,0.00,,---,0.00,VWS V14.01,2013-07-09 05:32:00,
2013-07-09 01:37:00,66.7,60.4,0.00,WSW,250,0.0,0.0,80,0.00,,---,0.00,VWS V14.01,2013-07-09 05:37:00,
2013-07-09 01:42:00,66.6,60.2,0.00,WSW,250,0.0,0.0,80,0.00,,---,0.00,VWS V14.01,2013-07-09 05:42:00,
2013-07-09 01:47:00,66.6,60.2,0.00,WSW,250,0.0,0.0,80,0.00,,---,0.00,VWS V14.01,2013-07-09 05:47:00,
2013-07-09 01:52:00,66.6,60.2,0.00,WSW,250,0.0,0.0,80,0.00,,---,0.00,VWS V14.01,2013-07-09 05:52:00,
2013-07-09 01:57:00,66.6,60.2,0.00,WSW,250,0.0,0.0,80,0.00,,---,0.00,VWS V14.01,2013-07-09 05:57:00,
2013-07-09 02:02:00,66.4,60.0,0.00,WSW,250,0.0,0.0,80,0.00,,---,0.00,VWS V14.01,2013-07-09 06:02:00,
2013-07-09 02:07:00,66.4,60.0,0.00,WSW,250,0.0,0.0,80,0.00,,---,0.00,VWS V14.01,2013-07-09 06:07:00,
2013-07-09 02:12:00,66.2,59.9,0.00,WSW,250,0.0,0.0,80,0.00,,---,0.00,VWS V14.01,2013-07-09 06:12:00,
2013-07-09 02:17:00,66.2,59.9,0.00,WSW,250,0.0,0.0,80,0.00,,---,0.00,VWS V14.01,2013-07-09 06:17:00,
2013-07-09 02:22:00,66.0,60.0,0.00,WSW,250,0.0,0.0,81,0.00,,---,0.00,VWS V14.01,2013-07-09 06:22:00,
2013-07-09 02:27:00,65.8,59.8,0.00,WSW,250,0.0,0.0,81,0.00,,---,0.00,VWS V14.01,2013-07-09 06:27:00,
2013-07-09 02:32:00,65.8,59.8,0.00,WSW,250,0.0,0.0,81,0.00,,---,0.00,VWS V14.01,2013-07-09 06:32:00,
2013-07-09 02:37:00,65.8,59.8,0.00,WSW,250,0.0,0.0,81,0.00,,---,0.00,VWS V14.01,2013-07-09 06:37:00,
2013-07-09 02:42:00,65.8,59.8,0.00,WSW,250,0.0,0.0,81,0.00,,---,0.00,VWS V14.01,2013-07-09 06:42:00,
2013-07-09 02:47:00,65.8,59.8,0.00,WSW,250,0.0,0.0,81,0.00,,---,0.00,VWS V14.01,2013-07-09 06:47:00,
2013-07-09 02:52:00,65.8,59.8,0.00,WSW,250,0.0,0.0,81,0.00,,---,0.00,VWS V14.01,2013-07-09 06:52:00,
2013-07-09 02:57:00,65.7,59.7,0.00,WSW,250,0.0,0.0,81,0.00,,---,0.00,VWS V14.01,2013-07-09 06:57:00,
2013-07-09 03:02:00,65.7,59.7,0.00,WSW,250,0.0,0.0,81,0.00,,---,0.00,VWS V14.01,2013-07-09 07:02:00,
2013-07-09 03:07:00,65.7,59.7,0.00,WSW,250,0.0,0.0,81,0.00,,---,0.00,VWS V14.01,2013-07-09 07:07:00,
2013-07-09 03:12:00,65.7,59.7,0.00,WSW,250,0.0,0.0,81,0.00,,---,0.00,VWS V14.01,2013-07-09 07:12:00,
2013-07-09 03:17:00,65.8,59.8,0.00,WSW,250,0.0,0.0,81,0.00,,---,0.00,VWS V14.01,2013-07-09 07:17:00,
2013-07-09 03:22:00,65.8,59.8,0.00,WSW,250,0.0,0.0,81,0.00,,---,0.00,VWS V14.01,2013-07-09 07:22:00,
2013-07-09 03:27:00,65.8,59.8,0.00,WSW,250,0.0,0.0,81,0.00,,---,0.00,VWS V14.01,2013-07-09 07:27:00,
2013-07-09 03:32:00,66.0,60.4,0.00,WSW,250,0.0,0.0,82,0.00,,---,0.00,VWS V14.01,2013-07-09 07:32:00,
2013-07-09 03:37:00,66.0,60.4,0.00,WSW,250,0.0,0.0,82,0.00,,---,0.00,VWS V14.01,2013-07-09 07:37:00,
2013-07-09 03:42:00,66.0,60.0,0.00,WSW,251,0.0,0.0,81,0.00,,---,0.00,VWS V14.01,2013-07-09 07:42:00,
2013-07-09 03:47:00,66.0,60.0,0.00,WSW,250,0.0,0.0,81,0.00,,---,0.00,VWS V14.01,2013-07-09 07:47:00,
2013-07-09 03:52:00,66.2,60.2,0.00,WSW,249,0.0,0.0,81,0.00,,---,0.00,VWS V14.01,2013-07-09 07:52:00,
2013-07-09 03:57:00,66.2,60.2,0.00,WSW,250,0.0,0.0,81,0.00,,---,0.00,VWS V14.01,2013-07-09 07:57:00,
2013-07-09 04:02:00,66.2,60.2,0.00,WSW,250,0.0,0.0,81,0.00,,---,0.00,VWS V14.01,2013-07-09 08:02:00,
2013-07-09 04:07:00,66.2,60.2,0.00,WSW,250,0.0,0.0,81,0.00,,---,0.00,VWS V14.01,2013-07-09 08:07:00,
2013-07-09 04:12:00,66.2,60.2,0.00,WSW,250,0.0,0.0,81,0.00,,---,0.00,VWS V14.01,2013-07-09 08:12:00,
2013-07-09 04:17:00,66.2,60.2,0.00,WSW,250,0.0,0.0,81,0.00,,---,0.00,VWS V14.01,2013-07-09 08:17:00,
2013-07-09 04:22:00,66.0,60.4,0.00,WSW,250,0.0,0.0,82,0.00,,---,0.00,VWS V14.01,2013-07-09 08:22:00,
2013-07-09 04:27:00,66.0,60.4,0.00,WSW,250,0.0,0.0,82,0.00,,---,0.00,VWS V14.01,2013-07-09 08:27:00,
2013-07-09 04:32:00,66.0,60.4,0.00,WSW,250,0.0,0.0,82,0.00,,---,0.00,VWS V14.01,2013-07-09 08:32:00,
2013-07-09 04:37:00,66.0,60.4,0.00,WSW,250,0.0,0.0,82,0.00,,---,0.00,VWS V14.01,2013-07-09 08:37:00,
2013-07-09 04:42:00,66.0,60.4,0.00,WSW,250,0.0,0.0,82,0.00,,---,0.00,VWS V14.01,2013-07-09 08:42:00,
2013-07-09 04:47:00,66.0,60.4,0.00,WSW,250,0.0,0.0,82,0.00,,---,0.00,VWS V14.01,2013-07-09 08:47:00,
2013-07-09 04:52:00,66.0,60.4,0.00,WSW,250,0.0,0.0,82,0.00,,---,0.00,VWS V14.01,2013-07-09 08:52:00,
2013-07-09 04:57:00,66.0,60.4,0.00,WSW,250,0.0,0.0,82,0.00,,---,0.00,VWS V14.01,2013-07-09 08:57:00,
2013-07-09 05:02:00,66.0,60.7,0.00,WSW,250,0.0,0.0,83,0.00,,---,0.00,VWS V14.01,2013-07-09 09:02:00,
2013-07-09 05:07:00,66.0,60.7,0.00,WSW,250,0.0,0.0,83,0.00,,---,0.00,VWS V14.01,2013-07-09 09:07:00,
2013-07-09 05:12:00,66.0,60.7,0.00,WSW,250,0.0,0.0,83,0.00,,---,0.00,VWS V14.01,2013-07-09 09:12:00,
2013-07-09 05:17:00,66.0,60.7,0.00,WSW,250,0.0,0.0,83,0.00,,---,0.00,VWS V14.01,2013-07-09 09:17:00,
2013-07-09 05:23:00,66.0,60.7,0.00,WSW,250,0.0,0.0,83,0.00,,---,0.00,VWS V14.01,2013-07-09 09:23:00,
2013-07-09 05:27:00,66.0,60.7,0.00,WSW,250,0.0,0.0,83,0.00,,---,0.00,VWS V14.01,2013-07-09 09:27:00,
2013-07-09 05:32:00,66.0,60.7,0.00,WSW,250,0.0,0.0,83,0.00,,---,0.00,VWS V14.01,2013-07-09 09:32:00,
2013-07-09 05:37:00,66.0,60.7,0.00,WSW,250,0.0,0.0,83,0.00,,---,0.00,VWS V14.01,2013-07-09 09:37:00,
2013-07-09 05:42:00,66.0,60.7,0.00,WSW,250,0.0,0.0,83,0.00,,---,0.00,VWS V14.01,2013-07-09 09:42:00,
2013-07-09 05:47:00,66.0,60.7,0.00,WSW,250,0.0,0.0,83,0.00,,---,0.00,VWS V14.01,2013-07-09 09:47:00,
2013-07-09 05:52:00,66.0,60.7,0.00,WSW,250,0.0,0.0,83,0.00,,---,0.00,VWS V14.01,2013-07-09 09:52:00,
2013-07-09 05:58:00,66.0,60.7,0.00,WSW,250,0.0,0.0,83,0.00,,---,0.00,VWS V14.01,2013-07-09 09:58:00,
2013-07-09 06:02:00,66.0,60.7,0.00,WSW,250,0.0,0.0,83,0.00,,---,0.00,VWS V14.01,2013-07-09 10:02:00,
2013-07-09 06:07:00,66.0,61.0,0.00,WSW,250,0.0,0.0,84,0.00,,---,0.00,VWS V14.01,2013-07-09 10:07:00,
2013-07-09 06:13:00,66.0,61.0,0.00,WSW,250,0.0,0.0,84,0.00,,---,0.00,VWS V14.01,2013-07-09 10:13:00,
2013-07-09 06:18:00,66.0,61.0,0.00,WSW,250,0.0,0.0,84,0.00,,---,0.00,VWS V14.01,2013-07-09 10:18:00,
2013-07-09 06:23:00,66.0,61.0,0.00,WSW,250,0.0,0.0,84,0.00,,---,0.00,VWS V14.01,2013-07-09 10:23:00,
2013-07-09 06:28:00,66.0,61.0,0.00,WSW,250,0.0,0.0,84,0.00,,---,0.00,VWS V14.01,2013-07-09 10:28:00,
2013-07-09 06:33:00,66.0,61.0,0.00,WSW,250,0.0,0.0,84,0.00,,---,0.00,VWS V14.01,2013-07-09 10:33:00,
2013-07-09 06:38:00,66.0,61.0,0.00,WSW,250,0.0,0.0,84,0.00,,---,0.00,VWS V14.01,2013-07-09 10:38:00,
2013-07-09 06:43:00,66.0,61.0,0.00,WSW,250,0.0,0.0,84,0.00,,---,0.00,VWS V14.01,2013-07-09 10:43:00,
2013-07-09 06:48:00,66.2,61.2,0.00,WSW,250,0.0,0.0,84,0.00,,---,0.00,VWS V14.01,2013-07-09 10:48:00,
2013-07-09 06:53:00,66.4,61.4,0.00,WSW,250,0.0,0.0,84,0.00,,---,0.00,VWS V14.01,2013-07-09 10:53:00,
2013-07-09 06:58:00,66.6,61.6,0.00,WSW,250,0.0,0.0,84,0.00,,---,0.00,VWS V14.01,2013-07-09 10:58:00,
2013-07-09 07:03:00,66.6,61.6,0.00,WSW,250,0.0,0.0,84,0.00,,---,0.00,VWS V14.01,2013-07-09 11:03:00,
2013-07-09 07:08:00,66.7,61.8,0.00,WSW,250,0.0,0.0,84,0.00,,---,0.00,VWS V14.01,2013-07-09 11:08:00,
2013-07-09 07:13:00,67.1,62.5,0.00,WSW,250,0.0,0.0,85,0.00,,---,0.00,VWS V14.01,2013-07-09 11:13:00,
2013-07-09 07:18:00,67.1,62.5,0.00,WSW,250,0.0,0.0,85,0.00,,---,0.00,VWS V14.01,2013-07-09 11:18:00,
2013-07-09 07:23:00,67.3,62.6,0.00,WSW,250,0.0,0.0,85,0.00,,---,0.00,VWS V14.01,2013-07-09 11:23:00,
2013-07-09 07:28:00,67.5,62.8,0.00,WSW,250,0.0,0.0,85,0.00,,---,0.00,VWS V14.01,2013-07-09 11:28:00,
2013-07-09 07:33:00,67.5,62.8,0.00,WSW,250,0.0,0.0,85,0.00,,---,0.00,VWS V14.01,2013-07-09 11:33:00,
2013-07-09 07:38:00,67.6,63.0,0.00,WSW,250,0.0,0.0,85,0.00,,---,0.00,VWS V14.01,2013-07-09 11:38:00,
2013-07-09 07:43:00,67.8,63.2,0.00,WSW,250,0.0,0.0,85,0.00,,---,0.00,VWS V14.01,2013-07-09 11:43:00,
2013-07-09 07:48:00,67.8,63.2,0.00,WSW,250,0.0,0.0,85,0.00,,---,0.00,VWS V14.01,2013-07-09 11:48:00,
2013-07-09 07:53:00,68.0,63.3,0.00,WSW,250,0.0,0.0,85,0.00,,---,0.00,VWS V14.01,2013-07-09 11:53:00,
2013-07-09 07:58:00,68.2,63.5,0.00,WSW,250,0.0,0.0,85,0.00,,---,0.00,VWS V14.01,2013-07-09 11:58:00,
2013-07-09 08:03:00,68.2,63.5,0.00,WSW,250,0.0,0.0,85,0.00,,---,0.00,VWS V14.01,2013-07-09 12:03:00,
2013-07-09 08:08:00,68.7,64.0,0.00,WSW,250,0.0,0.0,85,0.00,,---,0.00,VWS V14.01,2013-07-09 12:08:00,
2013-07-09 08:13:00,69.1,64.7,0.00,WSW,250,0.0,0.0,86,0.00,,---,0.00,VWS V14.01,2013-07-09 12:13:00,
2013-07-09 08:18:00,69.1,64.7,0.00,WSW,250,0.0,0.0,86,0.00,,---,0.00,VWS V14.01,2013-07-09 12:18:00,
2013-07-09 08:23:00,69.4,65.1,0.00,WSW,250,0.0,0.0,86,0.00,,---,0.00,VWS V14.01,2013-07-09 12:23:00,
2013-07-09 08:28:00,69.4,65.1,0.00,WSW,250,0.0,0.0,86,0.00,,---,0.00,VWS V14.01,2013-07-09 12:28:00,
2013-07-09 08:33:00,69.8,65.4,0.00,WSW,250,0.0,0.0,86,0.00,,---,0.00,VWS V14.01,2013-07-09 12:33:00,
2013-07-09 08:38:00,69.8,65.4,0.00,WSW,250,0.0,0.0,86,0.00,,---,0.00,VWS V14.01,2013-07-09 12:38:00,
2013-07-09 08:43:00,70.3,66.0,0.00,WSW,250,0.0,0.0,86,0.00,,---,0.00,VWS V14.01,2013-07-09 12:43:00,
2013-07-09 08:48:00,70.5,66.1,0.00,WSW,250,0.0,0.0,86,0.00,,---,0.00,VWS V14.01,2013-07-09 12:48:00,
2013-07-09 08:53:00,70.5,66.1,0.00,West,274,0.0,0.0,86,0.00,,---,0.00,VWS V14.01,2013-07-09 12:53:00,
2013-07-09 08:58:00,70.7,66.3,0.00,West,274,0.0,0.0,86,0.00,,---,0.00,VWS V14.01,2013-07-09 12:58:00,
2013-07-09 09:03:00,70.7,66.3,0.00,West,272,0.0,0.0,86,0.00,,---,0.00,VWS V14.01,2013-07-09 13:03:00,
2013-07-09 09:08:00,71.2,66.5,0.00,West,272,0.0,0.0,85,0.00,,---,0.00,VWS V14.01,2013-07-09 13:08:00,
2013-07-09 09:13:00,71.2,66.5,0.00,West,272,0.0,0.0,85,0.00,,---,0.12,VWS V14.01,2013-07-09 13:13:00,
2013-07-09 09:18:00,71.4,66.7,0.00,WNW,294,0.0,0.0,85,0.00,,---,0.00,VWS V14.01,2013-07-09 13:18:00,
2013-07-09 09:23:00,71.8,67.0,0.00,WNW,294,0.0,0.0,85,0.00,,---,0.00,VWS V14.01,2013-07-09 13:23:00,
2013-07-09 09:28:00,71.8,66.7,0.00,WNW,294,0.0,0.0,84,0.00,,---,0.00,VWS V14.01,2013-07-09 13:28:00,
2013-07-09 09:33:00,72.1,67.0,0.00,WNW,294,0.0,0.0,84,0.00,,---,0.00,VWS V14.01,2013-07-09 13:33:00,
2013-07-09 09:38:00,72.1,67.0,0.00,WNW,292,0.0,0.0,84,0.00,,---,0.00,VWS V14.01,2013-07-09 13:38:00,
2013-07-09 09:43:00,72.5,67.1,0.00,WNW,291,0.0,0.0,83,0.00,,---,0.00,VWS V14.01,2013-07-09 13:43:00,
2013-07-09 09:48:00,72.7,66.9,0.00,SE,134,2.2,2.2,82,0.00,,---,0.00,VWS V14.01,2013-07-09 13:48:00,
2013-07-09 09:53:00,72.7,66.9,0.00,South,179,0.0,0.0,82,0.00,,---,0.00,VWS V14.01,2013-07-09 13:53:00,
2013-07-09 09:58:00,72.9,66.3,0.00,South,173,0.0,0.0,80,0.00,,---,0.00,VWS V14.01,2013-07-09 13:58:00,
2013-07-09 10:03:00,73.0,66.5,0.00,South,186,0.0,0.0,80,0.00,,---,0.00,VWS V14.01,2013-07-09 14:03:00,
2013-07-09 10:08:00,73.2,66.0,0.00,South,186,0.0,0.0,78,0.00,,---,0.00,VWS V14.01,2013-07-09 14:08:00,
2013-07-09 10:13:00,73.2,66.0,0.00,SW,216,0.0,0.0,78,0.00,,---,0.00,VWS V14.01,2013-07-09 14:13:00,
2013-07-09 10:18:00,73.4,65.8,0.00,SW,216,0.0,0.0,77,0.00,,---,0.00,VWS V14.01,2013-07-09 14:18:00,
2013-07-09 10:23:00,73.2,64.4,0.00,SW,228,0.0,0.0,74,0.00,,---,0.00,VWS V14.01,2013-07-09 14:23:00,
2013-07-09 10:28:00,73.6,64.0,0.00,SW,222,0.0,0.0,72,0.00,,---,0.00,VWS V14.01,2013-07-09 14:28:00,
2013-07-09 10:33:00,73.9,63.5,0.00,WNW,284,4.0,4.0,70,0.00,,---,0.00,VWS V14.01,2013-07-09 14:33:00,
2013-07-09 10:38:00,74.1,63.3,0.00,SE,141,0.0,0.0,69,0.00,,---,0.00,VWS V14.01,2013-07-09 14:38:00,
2013-07-09 10:43:00,74.1,63.3,0.00,WNW,302,0.0,0.0,69,0.00,,---,0.00,VWS V14.01,2013-07-09 14:43:00,
2013-07-09 10:48:00,74.3,62.6,0.00,WNW,284,0.0,0.0,67,0.00,,---,0.00,VWS V14.01,2013-07-09 14:48:00,
2013-07-09 10:53:00,74.3,62.6,0.00,WNW,284,0.0,0.0,67,0.00,,---,0.00,VWS V14.01,2013-07-09 14:53:00,
2013-07-09 10:58:00,74.8,63.2,0.00,SSE,158,0.0,0.0,67,0.00,,---,0.00,VWS V14.01,2013-07-09 14:58:00,
2013-07-09 11:03:00,74.8,62.7,0.00,ENE,63,0.0,0.0,66,0.00,,---,0.00,VWS V14.01,2013-07-09 15:03:00,
2013-07-09 11:08:00,74.5,61.1,0.00,ENE,63,0.0,0.0,63,0.00,,---,0.00,VWS V14.01,2013-07-09 15:08:00,
2013-07-09 11:13:00,74.5,61.1,0.00,ENE,63,0.0,0.0,63,0.00,,---,0.00,VWS V14.01,2013-07-09 15:13:00,
2013-07-09 11:18:00,74.5,60.6,0.00,ENE,63,0.0,0.0,62,0.00,,---,0.00,VWS V14.01,2013-07-09 15:18:00,
2013-07-09 11:23:00,75.4,61.5,0.00,SSW,213,0.0,0.0,62,0.00,,---,0.00,VWS V14.01,2013-07-09 15:23:00,
2013-07-09 11:28:00,75.4,60.5,0.00,ESE,109,2.2,2.2,60,0.00,,---,0.00,VWS V14.01,2013-07-09 15:28:00,
2013-07-09 11:33:00,75.4,60.5,0.00,SSE,148,0.0,0.0,60,0.00,,---,0.00,VWS V14.01,2013-07-09 15:33:00,
2013-07-09 11:38:00,75.4,60.5,0.00,SW,223,3.6,3.6,60,0.00,,---,0.00,VWS V14.01,2013-07-09 15:38:00,
2013-07-09 11:43:00,76.6,60.8,0.00,SW,223,3.6,3.6,58,0.00,,---,0.00,VWS V14.01,2013-07-09 15:43:00,
2013-07-09 11:48:00,76.6,60.8,0.00,East,91,0.0,0.0,58,0.00,,---,0.00,VWS V14.01,2013-07-09 15:48:00,
2013-07-09 11:53:00,75.9,58.6,0.00,ESE,119,0.0,0.0,55,0.00,,---,0.00,VWS V14.01,2013-07-09 15:53:00,
2013-07-09 11:58:00,75.4,58.1,0.00,SSE,164,0.0,0.0,55,0.00,,---,0.00,VWS V14.01,2013-07-09 15:58:00,
2013-07-09 12:03:00,75.4,58.1,0.00,West,265,0.0,0.0,55,0.00,,---,0.00,VWS V14.01,2013-07-09 16:03:00,
2013-07-09 12:08:00,75.2,58.4,0.00,SW,229,0.0,0.0,56,0.00,,---,0.00,VWS V14.01,2013-07-09 16:08:00,
2013-07-09 12:13:00,75.2,58.4,0.00,WSW,255,2.2,2.2,56,0.00,,---,0.00,VWS V14.01,2013-07-09 16:13:00,
2013-07-09 12:18:00,76.5,60.6,0.00,WSW,255,2.2,2.2,58,0.00,,---,0.00,VWS V14.01,2013-07-09 16:18:00,
2013-07-09 12:23:00,77.4,59.4,0.00,WSW,255,2.2,2.2,54,0.00,,---,0.00,VWS V14.01,2013-07-09 16:23:00,
2013-07-09 12:28:00,77.0,58.6,0.00,East,96,3.1,3.1,53,0.00,,---,0.00,VWS V14.01,2013-07-09 16:28:00,
2013-07-09 12:33:00,76.6,58.2,0.00,SW,221,0.0,0.0,53,0.00,,---,0.00,VWS V14.01,2013-07-09 16:33:00,
2013-07-09 12:38:00,76.3,57.4,0.00,East,99,0.0,0.0,52,0.00,,---,0.00,VWS V14.01,2013-07-09 16:38:00,
2013-07-09 12:43:00,76.5,57.5,0.00,East,89,0.0,0.0,52,0.00,,---,0.00,VWS V14.01,2013-07-09 16:43:00,
2013-07-09 12:48:00,76.5,57.5,0.00,ENE,62,0.0,0.0,52,0.00,,---,0.00,VWS V14.01,2013-07-09 16:48:00,
2013-07-09 12:53:00,76.8,57.3,0.00,West,266,2.7,2.7,51,0.00,,---,0.00,VWS V14.01,2013-07-09 16:53:00,
2013-07-09 12:58:00,76.8,57.3,0.00,NNE,12,0.0,0.0,51,0.00,,---,0.00,VWS V14.01,2013-07-09 16:58:00,
2013-07-09 13:03:00,77.0,57.0,0.00,West,259,0.0,0.0,50,0.00,,---,0.00,VWS V14.01,2013-07-09 17:03:00,
2013-07-09 13:08:00,77.5,58.0,0.00,SSE,165,0.0,0.0,51,0.00,,---,0.00,VWS V14.01,2013-07-09 17:08:00,
2013-07-09 13:13:00,77.5,58.0,0.00,SE,136,3.1,4.0,51,0.00,,---,0.00,VWS V14.01,2013-07-09 17:13:00,
2013-07-09 13:18:00,78.4,57.1,0.00,ESE,109,0.0,4.0,48,0.00,,---,0.00,VWS V14.01,2013-07-09 17:18:00,
2013-07-09 13:23:00,78.4,57.1,0.00,NE,43,0.0,0.0,48,0.00,,---,0.00,VWS V14.01,2013-07-09 17:23:00,
2013-07-09 13:28:00,78.4,57.1,0.00,NE,43,0.0,0.0,48,0.00,,---,0.00,VWS V14.01,2013-07-09 17:28:00,
2013-07-09 13:33:00,78.6,57.3,0.00,SE,131,0.0,0.0,48,0.00,,---,0.00,VWS V14.01,2013-07-09 17:33:00,
2013-07-09 13:38:00,78.6,57.3,0.00,SSE,156,0.0,0.0,48,0.00,,---,0.00,VWS V14.01,2013-07-09 17:38:00,
2013-07-09 13:43:00,79.5,57.0,0.00,SSE,160,0.0,0.0,46,0.00,,---,0.00,VWS V14.01,2013-07-09 17:43:00,
2013-07-09 13:48:00,79.5,57.0,0.00,SSE,160,0.0,0.0,46,0.00,,---,0.00,VWS V14.01,2013-07-09 17:48:00,
2013-07-09 13:53:00,79.5,56.3,0.00,SSE,160,0.0,0.0,45,0.00,,---,0.00,VWS V14.01,2013-07-09 17:53:00,
2013-07-09 13:58:00,78.8,55.7,0.00,ESE,115,0.0,0.0,45,0.00,,---,0.00,VWS V14.01,2013-07-09 17:58:00,
2013-07-09 14:03:00,78.4,56.0,0.00,ESE,115,0.0,0.0,46,0.00,,---,0.00,VWS V14.01,2013-07-09 18:03:00,
2013-07-09 14:08:00,77.7,55.9,0.00,SE,133,0.0,0.0,47,0.00,,---,0.00,VWS V14.01,2013-07-09 18:08:00,
2013-07-09 14:13:00,77.5,55.7,0.00,SE,139,0.0,0.0,47,0.00,,---,0.00,VWS V14.01,2013-07-09 18:13:00,
2013-07-09 14:18:00,77.5,55.7,0.00,SE,139,0.0,0.0,47,0.00,,---,0.00,VWS V14.01,2013-07-09 18:18:00,
2013-07-09 14:23:00,77.5,55.7,0.00,SE,141,2.7,2.7,47,0.00,,---,0.00,VWS V14.01,2013-07-09 18:23:00,
2013-07-09 14:28:00,76.5,58.1,0.00,ESE,103,2.7,2.7,53,0.00,,---,0.00,VWS V14.01,2013-07-09 18:28:00,
2013-07-09 14:33:00,76.1,59.3,0.00,ESE,103,2.7,2.7,56,0.00,,---,0.00,VWS V14.01,2013-07-09 18:33:00,
2013-07-09 14:38:00,76.1,59.3,0.00,ESE,113,0.0,0.0,56,0.00,,---,0.00,VWS V14.01,2013-07-09 18:38:00,
2013-07-09 14:43:00,76.5,61.1,0.00,SE,127,2.7,2.7,59,0.00,,---,0.00,VWS V14.01,2013-07-09 18:43:00,
2013-07-09 14:48:00,76.5,61.1,0.00,SE,140,0.0,0.0,59,0.00,,---,0.00,VWS V14.01,2013-07-09 18:48:00,
2013-07-09 14:53:00,76.5,61.1,0.00,SE,140,0.0,0.0,59,0.00,,---,0.00,VWS V14.01,2013-07-09 18:53:00,
2013-07-09 14:58:00,76.5,61.1,0.00,SE,140,0.0,0.0,59,0.00,,---,0.00,VWS V14.01,2013-07-09 18:58:00,
2013-07-09 15:03:00,76.5,61.1,0.00,SE,140,0.0,0.0,59,0.00,,---,0.00,VWS V14.01,2013-07-09 19:03:00,
2013-07-09 15:08:00,75.7,59.9,0.00,SE,140,0.0,0.0,58,0.00,,---,0.00,VWS V14.01,2013-07-09 19:08:00,
2013-07-09 15:13:00,75.6,59.8,0.00,SE,140,0.0,0.0,58,0.00,,---,0.00,VWS V14.01,2013-07-09 19:13:00,
2013-07-09 15:18:00,74.8,58.6,0.00,SE,140,0.0,0.0,57,0.00,,---,0.00,VWS V14.01,2013-07-09 19:18:00,
2013-07-09 15:23:00,74.8,58.6,0.00,SE,140,0.0,0.0,57,0.00,,---,0.00,VWS V14.01,2013-07-09 19:23:00,
2013-07-09 15:28:00,73.8,58.1,0.00,SE,140,0.0,0.0,58,0.00,,---,0.00,VWS V14.01,2013-07-09 19:28:00,
2013-07-09 15:33:00,73.2,59.0,0.00,SE,140,0.0,0.0,61,0.20,,---,0.20,VWS V14.01,2013-07-09 19:33:00,
2013-07-09 15:38:00,73.0,58.8,0.00,WSW,258,0.0,0.0,61,0.24,,---,0.24,VWS V14.01,2013-07-09 19:38:00,
2013-07-09 15:43:00,73.4,60.5,0.00,West,263,0.0,0.0,64,0.24,,---,0.24,VWS V14.01,2013-07-09 19:43:00,
2013-07-09 15:48:00,73.4,60.5,0.00,West,263,0.0,0.0,64,0.24,,---,0.24,VWS V14.01,2013-07-09 19:48:00,
2013-07-09 15:53:00,74.1,62.0,0.00,West,263,0.0,0.0,66,0.24,,---,0.24,VWS V14.01,2013-07-09 19:53:00,
2013-07-09 15:58:00,74.3,63.1,0.00,West,263,0.0,0.0,68,0.24,,---,0.24,VWS V14.01,2013-07-09 19:58:00,
2013-07-09 16:03:00,74.5,63.7,0.00,West,263,0.0,0.0,69,0.24,,---,0.24,VWS V14.01,2013-07-09 20:03:00,
2013-07-09 16:08:00,74.5,63.7,0.00,West,263,0.0,0.0,69,0.24,,---,0.24,VWS V14.01,2013-07-09 20:08:00,
2013-07-09 16:13:00,74.7,63.8,0.00,NW,307,0.0,0.0,69,0.24,,---,0.24,VWS V14.01,2013-07-09 20:13:00,
2013-07-09 16:18:00,74.7,64.2,0.00,NW,307,0.0,0.0,70,0.24,,---,0.24,VWS V14.01,2013-07-09 20:18:00,
2013-07-09 16:23:00,74.7,64.2,0.00,NW,307,0.0,0.0,70,0.24,,---,0.24,VWS V14.01,2013-07-09 20:23:00,
2013-07-09 16:28:00,74.8,64.8,0.00,NW,307,0.0,0.0,71,0.24,,---,0.24,VWS V14.01,2013-07-09 20:28:00,
2013-07-09 16:33:00,74.8,64.8,0.00,NW,307,0.0,0.0,71,0.04,,---,0.24,VWS V14.01,2013-07-09 20:33:00,
2013-07-09 16:38:00,74.8,64.8,0.00,NW,307,0.0,0.0,71,0.00,,---,0.24,VWS V14.01,2013-07-09 20:38:00,
2013-07-09 16:43:00,75.2,65.6,0.00,NW,307,0.0,0.0,72,0.00,,---,0.24,VWS V14.01,2013-07-09 20:43:00,
2013-07-09 16:48:00,75.0,65.4,0.00,NW,307,0.0,0.0,72,0.00,,---,0.24,VWS V14.01,2013-07-09 20:48:00,
2013-07-09 16:53:00,74.8,65.6,0.00,NW,307,0.0,0.0,73,0.00,,---,0.24,VWS V14.01,2013-07-09 20:53:00,
2013-07-09 16:58:00,74.7,65.4,0.00,NW,307,0.0,0.0,73,0.00,,---,0.24,VWS V14.01,2013-07-09 20:58:00,
2013-07-09 17:03:00,74.7,65.4,0.00,NW,307,0.0,0.0,73,0.00,,---,0.24,VWS V14.01,2013-07-09 21:03:00,
2013-07-09 17:08:00,74.3,65.5,0.00,NW,307,0.0,0.0,74,0.00,,---,0.24,VWS V14.01,2013-07-09 21:08:00,
2013-07-09 17:13:00,74.3,65.5,0.00,NW,307,0.0,0.0,74,0.00,,---,0.24,VWS V14.01,2013-07-09 21:13:00,
2013-07-09 17:18:00,74.1,65.7,0.00,NW,307,0.0,0.0,75,0.00,,---,0.24,VWS V14.01,2013-07-09 21:18:00,
2013-07-09 17:23:00,73.9,65.9,0.00,NW,307,0.0,0.0,76,0.00,,---,0.24,VWS V14.01,2013-07-09 21:23:00,
2013-07-09 17:29:00,74.1,66.1,0.00,NW,307,0.0,0.0,76,0.00,,---,0.24,VWS V14.01,2013-07-09 21:29:00,
2013-07-09 17:34:00,74.1,66.1,0.00,West,262,0.0,0.0,76,0.00,,---,0.24,VWS V14.01,2013-07-09 21:34:00,
2013-07-09 17:39:00,74.1,66.1,0.00,West,262,0.0,0.0,76,0.00,,---,0.24,VWS V14.01,2013-07-09 21:39:00,
2013-07-09 17:44:00,73.9,66.3,0.00,West,262,0.0,0.0,77,0.00,,---,0.24,VWS V14.01,2013-07-09 21:44:00,
2013-07-09 17:49:00,73.9,66.3,0.00,West,262,0.0,0.0,77,0.00,,---,0.24,VWS V14.01,2013-07-09 21:49:00,
2013-07-09 17:54:00,73.8,66.1,0.00,West,262,0.0,0.0,77,0.04,,---,0.28,VWS V14.01,2013-07-09 21:54:00,
2013-07-09 17:59:00,73.8,66.1,0.00,West,262,0.0,0.0,77,0.04,,---,0.28,VWS V14.01,2013-07-09 21:59:00,
2013-07-09 18:04:00,73.8,66.1,0.00,West,262,0.0,0.0,77,0.04,,---,0.28,VWS V14.01,2013-07-09 22:04:00,
2013-07-09 18:09:00,73.8,66.5,0.00,West,262,0.0,0.0,78,0.04,,---,0.28,VWS V14.01,2013-07-09 22:09:00,
2013-07-09 18:14:00,73.8,66.5,0.00,West,262,0.0,0.0,78,0.04,,---,0.28,VWS V14.01,2013-07-09 22:14:00,
2013-07-09 18:19:00,73.8,66.5,0.00,West,262,0.0,0.0,78,0.04,,---,0.28,VWS V14.01,2013-07-09 22:19:00,
2013-07-09 18:24:00,73.9,66.7,0.00,West,262,0.0,0.0,78,0.04,,---,0.28,VWS V14.01,2013-07-09 22:24:00,
2013-07-09 18:29:00,73.9,66.7,0.00,West,262,0.0,0.0,78,0.04,,---,0.28,VWS V14.01,2013-07-09 22:29:00,
2013-07-09 18:34:00,73.9,66.7,0.00,West,262,0.0,0.0,78,0.04,,---,0.28,VWS V14.01,2013-07-09 22:34:00,
2013-07-09 18:39:00,73.9,67.0,0.00,West,262,0.0,0.0,79,0.04,,---,0.28,VWS V14.01,2013-07-09 22:39:00,
2013-07-09 18:44:00,74.1,67.2,0.00,West,262,0.0,0.0,79,0.04,,---,0.28,VWS V14.01,2013-07-09 22:44:00,
2013-07-09 18:49:00,74.1,67.2,0.00,West,262,0.0,0.0,79,0.04,,---,0.28,VWS V14.01,2013-07-09 22:49:00,
2013-07-09 18:54:00,74.1,67.2,0.00,West,262,0.0,0.0,79,0.00,,---,0.28,VWS V14.01,2013-07-09 22:54:00,
2013-07-09 18:59:00,74.1,67.2,0.00,West,262,0.0,0.0,79,0.00,,---,0.28,VWS V14.01,2013-07-09 22:59:00,
2013-07-09 19:04:00,74.1,67.6,0.00,West,262,0.0,0.0,80,0.00,,---,0.28,VWS V14.01,2013-07-09 23:04:00,
2013-07-09 19:09:00,74.1,67.6,0.00,West,262,0.0,0.0,80,0.00,,---,0.28,VWS V14.01,2013-07-09 23:09:00,
2013-07-09 19:14:00,73.9,67.4,0.00,West,262,0.0,0.0,80,0.00,,---,0.28,VWS V14.01,2013-07-09 23:14:00,
2013-07-09 19:19:00,73.6,67.0,0.00,West,262,0.0,0.0,80,0.00,,---,0.28,VWS V14.01,2013-07-09 23:19:00,
2013-07-09 19:24:00,73.6,67.0,0.00,West,262,0.0,0.0,80,0.00,,---,0.28,VWS V14.01,2013-07-09 23:24:00,
2013-07-09 19:29:00,73.4,66.9,0.00,West,262,0.0,0.0,80,0.00,,---,0.28,VWS V14.01,2013-07-09 23:29:00,
2013-07-09 19:34:00,73.4,66.9,0.00,West,262,0.0,0.0,80,0.00,,---,0.28,VWS V14.01,2013-07-09 23:34:00,
2013-07-09 19:39:00,73.4,66.9,0.00,West,262,0.0,0.0,80,0.00,,---,0.28,VWS V14.01,2013-07-09 23:39:00,
2013-07-09 19:44:00,73.4,66.9,0.00,West,262,0.0,0.0,80,0.00,,---,0.28,VWS V14.01,2013-07-09 23:44:00,
2013-07-09 19:49:00,72.9,66.7,0.00,West,262,0.0,0.0,81,0.00,,---,0.28,VWS V14.01,2013-07-09 23:49:00,
2013-07-09 19:54:00,72.9,66.7,0.00,West,262,0.0,0.0,81,0.00,,---,0.28,VWS V14.01,2013-07-09 23:54:00,
2013-07-09 19:59:00,72.9,66.7,0.00,West,262,0.0,0.0,81,0.00,,---,0.28,VWS V14.01,2013-07-09 23:59:00,
2013-07-09 20:04:00,72.9,66.7,0.00,West,262,0.0,0.0,81,0.00,,---,0.28,VWS V14.01,2013-07-10 00:04:00,
2013-07-09 20:09:00,72.9,66.7,0.00,West,262,0.0,0.0,81,0.00,,---,0.28,VWS V14.01,2013-07-10 00:09:00,
2013-07-09 20:14:00,72.7,66.5,0.00,West,262,0.0,0.0,81,0.00,,---,0.28,VWS V14.01,2013-07-10 00:14:00,
2013-07-09 20:19:00,72.7,66.5,0.00,West,262,0.0,0.0,81,0.00,,---,0.28,VWS V14.01,2013-07-10 00:19:00,
2013-07-09 20:24:00,72.7,66.5,0.00,West,262,0.0,0.0,81,0.00,,---,0.28,VWS V14.01,2013-07-10 00:24:00,
2013-07-09 20:29:00,72.5,66.3,0.00,West,262,0.0,0.0,81,0.00,,---,0.28,VWS V14.01,2013-07-10 00:29:00,
2013-07-09 20:34:00,72.3,66.2,0.00,West,262,0.0,0.0,81,0.00,,---,0.28,VWS V14.01,2013-07-10 00:34:00,
2013-07-09 20:39:00,72.1,66.0,0.00,West,262,0.0,0.0,81,0.00,,---,0.28,VWS V14.01,2013-07-10 00:39:00,
2013-07-09 20:44:00,72.1,66.0,0.00,West,262,0.0,0.0,81,0.00,,---,0.28,VWS V14.01,2013-07-10 00:44:00,
2013-07-09 20:49:00,72.1,66.3,0.00,West,262,0.0,0.0,82,0.00,,---,0.28,VWS V14.01,2013-07-10 00:49:00,
2013-07-09 20:54:00,72.0,66.2,0.00,West,262,0.0,0.0,82,0.00,,---,0.28,VWS V14.01,2013-07-10 00:54:00,
2013-07-09 20:59:00,72.0,66.2,0.00,West,262,0.0,0.0,82,0.00,,---,0.28,VWS V14.01,2013-07-10 00:59:00,
2013-07-09 21:04:00,71.6,65.8,0.00,West,262,0.0,0.0,82,0.00,,---,0.28,VWS V14.01,2013-07-10 01:04:00,
2013-07-09 21:09:00,71.4,65.6,0.00,West,262,0.0,0.0,82,0.00,,---,0.28,VWS V14.01,2013-07-10 01:09:00,
2013-07-09 21:14:00,71.4,65.6,0.00,West,262,0.0,0.0,82,0.00,,---,0.28,VWS V14.01,2013-07-10 01:14:00,
2013-07-09 21:19:00,71.1,65.3,0.00,West,262,0.0,0.0,82,0.00,,---,0.28,VWS V14.01,2013-07-10 01:19:00,
2013-07-09 21:24:00,71.1,65.3,0.00,West,262,0.0,0.0,82,0.00,,---,0.28,VWS V14.01,2013-07-10 01:24:00,
2013-07-09 21:29:00,70.9,65.1,0.00,West,262,0.0,0.0,82,0.00,,---,0.28,VWS V14.01,2013-07-10 01:29:00,
2013-07-09 21:34:00,70.9,65.1,0.00,West,262,0.0,0.0,82,0.00,,---,0.28,VWS V14.01,2013-07-10 01:34:00,
2013-07-09 21:39:00,70.9,65.1,0.00,West,262,0.0,0.0,82,0.00,,---,0.28,VWS V14.01,2013-07-10 01:39:00,
2013-07-09 21:44:00,70.7,64.9,0.00,West,262,0.0,0.0,82,0.00,,---,0.28,VWS V14.01,2013-07-10 01:44:00,
2013-07-09 21:49:00,70.7,64.9,0.00,West,262,0.0,0.0,82,0.00,,---,0.28,VWS V14.01,2013-07-10 01:49:00,
2013-07-09 21:54:00,70.5,64.8,0.00,West,262,0.0,0.0,82,0.00,,---,0.28,VWS V14.01,2013-07-10 01:54:00,
2013-07-09 21:59:00,70.5,64.8,0.00,West,262,0.0,0.0,82,0.00,,---,0.28,VWS V14.01,2013-07-10 01:59:00,
2013-07-09 22:04:00,70.3,64.9,0.00,West,262,0.0,0.0,83,0.00,,---,0.28,VWS V14.01,2013-07-10 02:04:00,
2013-07-09 22:09:00,70.2,64.4,0.00,West,262,0.0,0.0,82,0.00,,---,0.28,VWS V14.01,2013-07-10 02:09:00,
2013-07-09 22:14:00,70.2,64.4,0.00,West,262,0.0,0.0,82,0.00,,---,0.28,VWS V14.01,2013-07-10 02:14:00,
2013-07-09 22:19:00,70.0,64.6,0.00,West,262,0.0,0.0,83,0.00,,---,0.28,VWS V14.01,2013-07-10 02:19:00,
2013-07-09 22:24:00,70.0,64.6,0.00,West,262,0.0,0.0,83,0.00,,---,0.28,VWS V14.01,2013-07-10 02:24:00,
2013-07-09 22:29:00,70.0,64.6,0.00,West,262,0.0,0.0,83,0.00,,---,0.28,VWS V14.01,2013-07-10 02:29:00,
2013-07-09 22:34:00,69.8,64.1,0.00,West,262,0.0,0.0,82,0.00,,---,0.28,VWS V14.01,2013-07-10 02:34:00,
2013-07-09 22:39:00,69.8,64.1,0.00,West,262,0.0,0.0,82,0.00,,---,0.28,VWS V14.01,2013-07-10 02:39:00,
2013-07-09 22:44:00,69.8,64.4,0.00,West,262,0.0,0.0,83,0.00,,---,0.28,VWS V14.01,2013-07-10 02:44:00,
2013-07-09 22:49:00,69.6,64.2,0.00,West,262,0.0,0.0,83,0.00,,---,0.28,VWS V14.01,2013-07-10 02:49:00,
2013-07-09 22:54:00,69.8,64.4,0.00,West,262,0.0,0.0,83,0.00,,---,0.28,VWS V14.01,2013-07-10 02:54:00,
2013-07-09 22:59:00,69.6,64.2,0.00,West,262,0.0,0.0,83,0.00,,---,0.28,VWS V14.01,2013-07-10 02:59:00,
2013-07-09 23:04:00,69.6,64.2,0.00,West,262,0.0,0.0,83,0.00,,---,0.28,VWS V14.01,2013-07-10 03:04:00,
2013-07-09 23:09:00,69.6,64.6,0.00,West,262,0.0,0.0,84,0.00,,---,0.28,VWS V14.01,2013-07-10 03:09:00,
2013-07-09 23:14:00,69.6,64.6,0.00,West,262,0.0,0.0,84,0.00,,---,0.28,VWS V14.01,2013-07-10 03:14:00,
2013-07-09 23:19:00,69.4,64.1,0.00,West,262,0.0,0.0,83,0.00,,---,0.28,VWS V14.01,2013-07-10 03:19:00,
2013-07-09 23:24:00,69.4,64.4,0.00,West,262,0.0,0.0,84,0.00,,---,0.28,VWS V14.01,2013-07-10 03:24:00,
2013-07-09 23:29:00,69.4,64.4,0.00,West,262,0.0,0.0,84,0.00,,---,0.28,VWS V14.01,2013-07-10 03:29:00,
2013-07-09 23:34:00,69.4,64.4,0.00,West,262,0.0,0.0,84,0.00,,---,0.28,VWS V14.01,2013-07-10 03:34:00,
2013-07-09 23:39:00,69.4,64.4,0.00,West,262,0.0,0.0,84,0.00,,---,0.28,VWS V14.01,2013-07-10 03:39:00,
2013-07-09 23:44:00,69.4,64.4,0.00,West,262,0.0,0.0,84,0.00,,---,0.28,VWS V14.01,2013-07-10 03:44:00,
2013-07-09 23:49:00,69.4,64.4,0.00,West,262,0.0,0.0,84,0.00,,---,0.28,VWS V14.01,2013-07-10 03:49:00,
2013-07-09 23:54:00,69.4,64.4,0.00,West,262,0.0,0.0,84,0.00,,---,0.00,VWS V14.01,2013-07-10 03:54:00,
2013-07-09 23:59:00,69.4,64.4,0.00,West,262,0.0,0.0,84,0.00,,---,0.00,VWS V14.01,2013-07-10 03:59:00,